Location: Pitton
(51.0667°N, 1.7000°W)
Time: 09:41:21
(UTC+00:00)

Meteor 1-4 Rocket - Pass Details

Date: 17 September 2019
Orbit: 449 x 504 km, 81.2° (Epoch: 14 October)

Event Time Altitude Azimuth Distance (km) Brightness Sun altitude
Rises 20:15:07 0° 345° (NNW) 2,540 6.9 -18.5°
Reaches altitude 10° 20:17:15 10° 342° (NNW) 1,646 5.9 -18.8°
Maximum altitude 20:20:48 63° 261° (W) 524 2.8 -19.3°
Enters shadow 20:22:07 34° 192° (SSW) 777 3.4 -19.5°
